Погода в Тамдыбулаке

Погода в Тамдыбулаке : погода сейчас, прогноз погоды и архив. Всё, что Вы хотите узнать о погоде в Тамдыбулаке!

Хотите узнать прогноз погоды в Тамдыбулаке? Тогда Вам сюда: Погода в Тамдыбулаке

Поиск расширенной информации на нашем сайте:

Другие новости

Новости СМИ2

Главная страница сайта

Новости сайта

03.07.2017

Напоминаем, что на нашем специализированном сайте Метеоцентр.Азия вы можете получить высокодетализированные автоматические прогнозы погоды по пунктам России, СНГ и мира в авиационном формате (включающие направление и скорость ветра, видимость, явления погоды, количество и форму облачности, нижнюю и верхнюю границу облачности).


Погода в Тамдыбулаке - сегодня

Время (UTC), дата Ветер
(°,м/с) 
Видим.   Явления Облачность Т
(°С)
Тd
(°С)
f(%) Тe
(°С)
Pmin
(гПа)
dP
(гПа)
Po
(мм)
O2
(г/м3)
Тmin Tmax R s Состояние
почвы
00 17.04.18 270 (З) н/о    10/0 средняя 
[As op]
+7.6 -5.7 38 +6  1021.5  -0.1  744  292           
03 17.04.18 290 (З) 20000 м    10/0 средняя 
[As op]
+9.2 -4.7 37 +8  1021.1  -0.2  744  291           
06 17.04.18 320 (СЗ) 10 км  слаб. дождь  10/0 средняя 
[As op]
+9 +2.9 66 +9  1022.2  1.1  745  290  +7.4         
09 17.04.18 310 (СЗ) 10 км  слаб. дождь  10/0 средняя 
[As op]
+7.6 +6.2 91 +6  1022.5  0.2  745  291           
12 17.04.18 270 (З) 10 км  слаб. дождь  10/10 300 м 
[Ns]
+8.8 +6.7 87 +8  1024.7  2.2  747  290           
15 17.04.18 270 (З) н/о  {дождь}  8/3 300 м кучево-дожд., средняя 
[Cb cap|Ac und]
+8 +6.2 88 +8  1025  0.2  747  291    +10       
18 17.04.18 220 (ЮЗ) н/о    ясно 
+7.2 +5 86 +6  1025.9  0.8  748  293    +10     
21 17.04.18 220 (ЮЗ) н/о    ясно 
+6.3 +3.5 82 +6  1026.4  0.3  748  294           
00 18.04.18 210 (ЮЗ) н/о    ясно 
+5.2 +3 86 +5  1027.6  1.1  749  296           
03 18.04.18 240 (ЮЗ) 20000 м    ясно 
+7 +5.5 90 +8  1028.5  1.1  749  294           
06 18.04.18 250 (З) 20000 м    ясно 
+13.2 +10.5 84 +14  1029.6  1.8  751  287  +5         
09 18.04.18 320 (СЗ) 20000 м    8/0 средняя 
[Ac cuf]
+15.4 +12.3 82 +20  1028.8  0.6  750  284           
12 18.04.18 290 (З) 20000 м    4/0 средняя 
[As op]
+16.4 +13 80 +22  1028.1  0.6  750  282           
15 18.04.18 180 (Ю) н/о    5/0 средняя 
[Ac trans]
+14.6 +11.7 83 +19  1029.7  -0.4  750  284    +18.2       
18 18.04.18 170 (Ю) н/о    4/0 средняя 
[As op]
+11.2 +9 86 +11  1028.6  0.4  750  289    +18.2       
21 18.04.18 190 (Ю) н/о    4/0 средняя 
[As op]
+8.2 +6.4 88 +8  1029.5  0.6  750  292           
00 19.04.18 180 (Ю) н/о    ясно 
+6.6 +5.2 91 +6  1030.2  0.4  751  294           
03 19.04.18 260 (З) 20000 м    5/0 средняя 
[Ac trans]
+10.6 +8.5 87 +12  1027.9  -1.8  749  289           
06 19.04.18 350 (С) 20000 м    8/3 1000 м средняя 
[Cu med, cong|Ac lent]
+17.3 +9.5 60 +20  1024.1  -3  747  281  +6.4         
09 19.04.18 270 (З) 20000 м    9/3 1000 м средняя 
[Cu med, cong|Ac lent]
+18.4 +8.8 54 +19  1022.8  -1.2  746  280           
12 19.04.18 350 (С) 20000 м    9/3 1000 м кучево-дожд., средняя 
[Cb cap|Ac As]
+18.4 +7.1 48 +19  1020.7  -2  745  280           
15 19.04.18 320 (СЗ) н/о    4/0 средняя 
[Ac trans]
+16.5 +5.5 48 +18  1020.2  -0.7  744  282    +19.8       
18 19.04.18 110 (В) н/о    ясно 
+13 +2.9 50 +14  1022.2  1.6  745  286    +19.8       
21 19.04.18 140 (ЮВ) н/о    ясно 
+11.5 +2.3 53 +13  1022.9  0.4  746  288           
00 20.04.18 110 (В) н/о    ясно 
+9.4 +0.9 55 +10  1023.1  746  290           
Время (UTC), дата Ветер
(°,м/с) 
Видим.   Явления Облачность Т
(°С)
Тd
(°С)
f(%) Тe
(°С)
Pmin
(гПа)
dP
(гПа)
Po
(мм)
O2
(г/м3)
Тmin Tmax R s Состояние
почвы

Для получения пояснительной информации подведите курсор к названию столбца.

ПОГОДА в Тамдыбулаке - архив

Всё, что Вы хотите узнать о погоде в Тамдыбулаке - удобно и подробно!

Выберите нужную дату (начиная с 1 января 2015* года) и нажмите кнопку "Найти".
Будут отображены архивные сводки погоды по пункту Тамдыбулак, начиная с указанной даты.


Отображать данные в формате CSV (для использования в таблицах Excel)


Внимание! Наш архив погоды предназначен исключительно для личного некоммерческого использования в познавательных целях. Если Вам необходимы официальные справки о состоянии погоды (для производственных, юридических, коммерческих и т.п. целей), обращайтесь в органы Росгидромета.

*Примечание: данная дата относится к архиву по метеостанциям СССР (Россия, СНГ, Балтия).
Архив по метеостанциям Зарубежной Европы и Азии (кроме Китая) хранится 10 дней, по другим регионам земного шара (Китай, Африка, Америка, Австралия, Океания) - 1 день.

Тамдыбулак - район местоположения метеостанции


Название, широта, долгота, высота метеостанции:
Тамдыбулак (Тамды) 41.7°ш. 64.6°д. 237 м над ур. моря [Узбекистан]

Дополнительная информация

В oтличие oт бoльшинства пoгoдных сайтoв мы публикуем пoдрoбную метеoинфoрмацию в детальнoм прoфессиoнальнoм фoрмате.

Характеристики температуры и влажнoсти вoздуха измеряются на высoте 2 м в тени вдали oт зданий и деревьев.
Скoрoсть ветра измеряется на высoте 10 м (на урoвне рoста челoвека скoрoсть ветра ниже в 1.5-2 раза). Если метеoстанция нахoдится в гoрoде или в лесу, тo скoрoсть ветра занижена на 2-4 м/с пo сравнению с oткрытым местoм. Скoрoсть ветра над акватoриями крупных рек и oзёр, а также на вершинах хoлмoв на 2-5 м/с выше, чем в oбычных услoвиях.
Атмoсфернoе давление в разных тoчках местнoсти мoжет значительнo oтличаться oт давления на метеoстанции, в зависимoсти oт услoвий рельефа (при пoдъёме на 10 м давление пoнижается примернo на 1 мм рт.ст.).